TimeMST,TemperatureF,Dew PointF,Humidity,Sea Level PressureIn,VisibilityMPH,Wind Direction,Wind SpeedMPH,Gust SpeedMPH,PrecipitationIn,Events,Conditions,WindDirDegrees,DateUTC
12:57 AM,55.9,55.0,97,30.11,10.0,Calm,Calm,-,N/A,,Clear,0,2013-07-27 07:57:00
2:57 AM,55.9,54.0,93,30.08,10.0,Calm,Calm,-,N/A,,Clear,0,2013-07-27 09:57:00
3:57 AM,55.9,53.1,90,30.06,10.0,Calm,Calm,-,N/A,,Partly Cloudy,0,2013-07-27 10:57:00
4:57 AM,55.9,54.0,93,30.10,10.0,Calm,Calm,-,N/A,,Overcast,0,2013-07-27 11:57:00
5:57 AM,55.0,54.0,96,30.11,10.0,Calm,Calm,-,N/A,,Mostly Cloudy,0,2013-07-27 12:57:00
6:57 AM,57.0,55.0,93,30.15,10.0,Calm,Calm,-,N/A,,Overcast,0,2013-07-27 13:57:00
7:57 AM,59.0,55.9,90,30.14,10.0,Calm,Calm,-,N/A,,Partly Cloudy,0,2013-07-27 14:57:00
8:57 AM,66.0,55.0,68,30.11,10.0,Calm,Calm,-,N/A,,Clear,0,2013-07-27 15:57:00
9:57 AM,69.1,55.0,61,30.09,10.0,South,3.5,-,N/A,,Mostly Cloudy,180,2013-07-27 16:57:00
10:57 AM,71.1,55.9,59,30.07,10.0,SW,4.6,-,N/A,,Partly Cloudy,220,2013-07-27 17:57:00
11:57 AM,71.1,55.9,59,30.05,10.0,SW,10.4,-,N/A,,Mostly Cloudy,230,2013-07-27 18:57:00
12:57 PM,73.9,55.9,53,30.01,10.0,SW,13.8,-,N/A,,Mostly Cloudy,230,2013-07-27 19:57:00
1:57 PM,73.0,55.0,53,29.99,10.0,SSW,15.0,21.9,N/A,,Scattered Clouds,210,2013-07-27 20:57:00
2:57 PM,73.9,55.0,52,29.97,10.0,SW,15.0,24.2,N/A,,Clear,220,2013-07-27 21:57:00
3:57 PM,71.1,55.9,59,29.98,10.0,SW,15.0,19.6,N/A,,Partly Cloudy,230,2013-07-27 22:57:00
4:57 PM,69.1,55.9,63,29.98,10.0,SW,11.5,-,N/A,,Mostly Cloudy,230,2013-07-27 23:57:00
5:57 PM,68.0,57.9,70,29.98,10.0,SSW,8.1,-,N/A,,Mostly Cloudy,210,2013-07-28 00:57:00
6:27 PM,62.6,55.4,77,30.29,10.0,WNW,11.5,27.6,0.00,Rain-Thunderstorm,Light Thunderstorms and Rain,290,2013-07-28 01:27:00
6:34 PM,59.0,53.6,82,30.29,10.0,West,11.5,21.9,0.00,Rain-Thunderstorm,Light Thunderstorms and Rain,280,2013-07-28 01:34:00
6:55 PM,57.2,55.4,94,30.28,5.0,NW,6.9,-,0.03,Rain-Thunderstorm,Light Thunderstorms and Rain,320,2013-07-28 01:55:00
6:57 PM,57.9,55.9,93,30.03,6.0,NW,4.6,-,0.03,Rain-Thunderstorm,Light Thunderstorms and Rain,320,2013-07-28 01:57:00
7:57 PM,57.0,55.9,96,30.04,6.0,Calm,Calm,-,0.06,Rain-Thunderstorm,Light Thunderstorms and Rain,0,2013-07-28 02:57:00
8:04 PM,57.2,55.4,94,30.28,5.0,Variable,3.5,-,0.01,Rain,Rain,0,2013-07-28 03:04:00
8:57 PM,57.9,55.9,93,30.02,10.0,South,3.5,-,0.04,,Overcast,180,2013-07-28 03:57:00
9:57 PM,55.9,55.0,97,29.99,10.0,Calm,Calm,-,N/A,,Partly Cloudy,0,2013-07-28 04:57:00
10:57 PM,57.0,53.1,87,29.97,10.0,SSW,3.5,-,N/A,,Clear,200,2013-07-28 05:57:00
11:57 PM,57.0,54.0,89,29.96,10.0,WSW,4.6,-,N/A,,Clear,250,2013-07-28 06:57:00